Regional Weather Roundup
Issued by NWS

Home | Current Version | Previous Version | Text Only | Print | Product List | Glossary On
Versions: 1 2 3 4 5 6 7 8 9 10 11 12 13 14 15 16 17 18 19 20 21 22 23 24 25 26 27 28 29 30 31 32 33 34 35 36 37 38 39 40 41 42 43 44 45 46 47 48 49 50
000
ASUS43 KIND 020909
RWRIN

WEATHER ROUNDUP FOR INDIANA
NATIONAL WEATHER SERVICE INDIANAPOLIS IN
500 AM EDT SAT AUG 02 2014

NOTE: "FAIR" INDICATES FEW OR NO CLOUDS BELOW 12,000 FEET WITH NO
SIGNIFICANT WEATHER AND/OR OBSTRUCTIONS TO VISIBILITY.

* - STATION DOES NOT REPORT WEATHER SUCH AS PRECIPITATION OR FOG.

+ - STATION NOT QUALITY CONTROLLED BY THE NATIONAL WEATHER SERVICE.
    USE DATA WITH CAUTION...ESPECIALLY DEWPOINT AND RELATIVE
    HUMIDITY OBSERVATIONS.

INZ001>003-010>013-019-020-021000-
NORTHWEST INDIANA

CITY           SKY/WX    TMP DP  RH WIND       PRES   REMARKS
GARY /AIRPORT/ CLEAR     59  57  94 CALM      30.10R FOG
KNOX *+        CLEAR     54  53  94 CALM      30.10R
LA PORTE +     PTCLDY    55  55 100 CALM      30.11S
MICHIGAN CITY+ CLEAR     55  54  94 CALM      30.10S FOG
MONTICELLO +   PTCLDY    58  57  99 CALM      30.09S FOG
RENSSELAER +   CLEAR     55  55 100 CALM      30.11R FOG
VALPARAISO     FOG       56  54  93 CALM      30.10S VSB 1/2

$$

LMZ046-743>745-021000-
SOUTHERN LAKE MICHIGAN

STATION/POSITION TIME  TEMP WIND        PRES
                       AIR  DIR/SP/G
                 (UTC) (F)  (DEG/KT/KT) (MB)
MICHIGAN CITY    0900   63  130/  5/  6   N/A

$$

INZ004-005-014>016-021>024-021000-
NORTH CENTRAL INDIANA

CITY           SKY/WX    TMP DP  RH WIND       PRES   REMARKS
GOSHEN         CLEAR     57  55  93 CALM      30.10S FOG
LOGANSPORT +   MOCLDY    57  55  94 CALM      30.10S FOG
PERU/GRISSOM   CLOUDY    62  62 100 N3        30.09S
ROCHESTER +    PTCLDY    59  59 100 CALM      30.10S FOG
SOUTH BEND     CLEAR     57  53  86 E3        30.12R
WARSAW +       PTCLDY    55  55 100 CALM      30.10S FOG

$$

INZ006>009-017-018-025>027-021000-
NORTHEAST INDIANA

CITY           SKY/WX    TMP DP  RH WIND       PRES   REMARKS
ANGOLA *+      CLEAR     61  48  63 CALM      30.10S
AUBURN +       MOCLDY    59  55  88 CALM      30.10S
FORT WAYNE     MOCLDY    60  57  89 N6        30.09R
HUNTINGTON +   CLOUDY    60  57  91 CALM      30.09R

$$

INZ028-029-035-036-043>045-051>053-021000-
WEST CENTRAL INDIANA

CITY           SKY/WX    TMP DP  RH WIND       PRES   REMARKS
GREENCASTLE +  MOCLDY    61  59  94 CALM      30.08R
LAFAYETTE      MOCLDY    60  59  96 N5        30.09R FOG
TERRE HAUTE    MOCLDY    64  62  93 NW3       30.08R FOG

$$

INZ030>032-037>040-046>048-054>057-064-065-021000-
CENTRAL INDIANA

CITY           SKY/WX    TMP DP  RH WIND       PRES   REMARKS
CP ATTERBURY + CLOUDY    63  59  88 CALM      30.08S FOG
INDIANAPOLIS   CLOUDY    63  59  87 N5        30.07F
-EAGLE CREEK   CLOUDY    64  59  83 N5        30.07S
KOKOMO *+      CLOUDY    63  59  88 CALM      30.10R
MARION +         N/A     63  60  91 CALM      30.10S
MT COMFORT *+  CLOUDY    63  63 100 NE3       30.08F
SHELBYVILLE    CLOUDY    66  61  84 E5        30.06F
ZIONSVILLE +   CLOUDY    63  59  88 N5        30.10R FOG

$$

INZ033-034-041-042-049-050-058-059-021000-
EAST CENTRAL INDIANA

CITY           SKY/WX    TMP DP  RH WIND       PRES   REMARKS
MUNCIE         CLOUDY    65  59  81 S5        30.10R

$$

INZ060-061-067>069-081>083-085>088-021000-
SOUTHWEST INDIANA

CITY           SKY/WX    TMP DP  RH WIND       PRES   REMARKS
EVANSVILLE     CLOUDY    69  62  78 N9        30.08R
WASHINGTON +   MOCLDY    65  65  99 W5        30.06S

$$

INZ062-063-066-070>080-084-089>092-021000-
SOUTH CENTRAL AND SOUTHEAST INDIANA

CITY           SKY/WX    TMP DP  RH WIND       PRES   REMARKS
BLOOMINGTON    CLOUDY    63  60  90 CALM      30.07F
NORTH VERNON + CLOUDY    63  63 100 CALM      30.08
SEYMOUR +      CLOUDY    61  50  67 NW5       30.06

$$



USA.gov is the U.S. government's official web portal to all federal, state and local government web resources and services.